TimePST,TemperatureF,Dew PointF,Humidity,Sea Level PressureIn,VisibilityMPH,Wind Direction,Wind SpeedMPH,Gust SpeedMPH,PrecipitationIn,Events,Conditions,WindDirDegrees,DateUTC
12:53 AM,37.0,35.1,93,30.20,3.0,SE,5.8,-,0.04,Rain,Light Rain,140,2013-01-04 08:53:00
1:22 AM,37.4,35.6,93,30.18,5.0,SE,5.8,-,0.01,,Overcast,130,2013-01-04 09:22:00
1:53 AM,37.9,35.1,89,30.23,5.0,ESE,5.8,-,0.01,Rain,Light Rain,120,2013-01-04 09:53:00
2:46 AM,37.4,35.6,93,30.21,5.0,SE,6.9,-,0.01,Rain,Light Rain,140,2013-01-04 10:46:00
2:53 AM,37.9,36.0,93,30.25,3.0,SE,6.9,-,0.01,Rain,Light Rain,130,2013-01-04 10:53:00
3:53 AM,39.0,37.0,93,30.26,3.0,SE,8.1,-,0.00,,Overcast,140,2013-01-04 11:53:00
4:53 AM,41.0,37.9,89,30.26,3.0,SE,10.4,-,0.01,,Overcast,140,2013-01-04 12:53:00
5:18 AM,41.0,39.2,93,30.24,3.0,Calm,Calm,-,0.00,Rain,Light Rain,0,2013-01-04 13:18:00
5:53 AM,41.0,39.0,93,30.28,3.0,Calm,Calm,-,0.00,Rain,Light Rain,0,2013-01-04 13:53:00
5:55 AM,41.0,39.2,93,30.25,2.5,Calm,Calm,-,0.00,Rain,Light Rain,0,2013-01-04 13:55:00
6:00 AM,41.0,39.2,93,30.25,2.5,Calm,Calm,-,0.00,Rain,Light Rain,0,2013-01-04 14:00:00
6:53 AM,42.1,39.0,89,30.29,2.5,SE,5.8,-,0.03,Rain,Light Rain,130,2013-01-04 14:53:00
7:29 AM,41.0,39.2,93,30.27,5.0,SSE,6.9,-,0.01,,Overcast,150,2013-01-04 15:29:00
7:53 AM,41.0,39.9,96,30.30,8.0,South,3.5,-,0.01,,Overcast,170,2013-01-04 15:53:00
8:53 AM,43.0,41.0,93,30.32,10.0,SSW,8.1,-,N/A,,Overcast,210,2013-01-04 16:53:00
9:53 AM,44.1,41.0,89,30.34,10.0,SSW,11.5,-,N/A,,Mostly Cloudy,210,2013-01-04 17:53:00
10:53 AM,46.0,42.1,86,30.34,10.0,SW,13.8,-,N/A,,Mostly Cloudy,220,2013-01-04 18:53:00
11:18 AM,46.4,42.8,87,30.30,10.0,SSW,10.4,-,N/A,,Scattered Clouds,210,2013-01-04 19:18:00
11:53 AM,48.0,42.1,80,30.32,10.0,SSW,12.7,-,N/A,,Scattered Clouds,210,2013-01-04 19:53:00
12:40 PM,48.2,42.8,82,30.28,10.0,SW,6.9,-,N/A,,Scattered Clouds,220,2013-01-04 20:40:00
12:53 PM,48.9,41.0,74,30.31,10.0,SSW,11.5,-,N/A,,Mostly Cloudy,210,2013-01-04 20:53:00
1:53 PM,48.9,39.9,71,30.29,10.0,SSW,4.6,-,N/A,,Scattered Clouds,200,2013-01-04 21:53:00
2:53 PM,48.0,39.0,71,30.29,10.0,SSW,3.5,-,N/A,,Mostly Cloudy,210,2013-01-04 22:53:00
3:41 PM,48.2,41.0,76,30.26,10.0,SE,3.5,-,N/A,,Mostly Cloudy,130,2013-01-04 23:41:00
3:53 PM,48.0,41.0,77,30.28,10.0,Calm,Calm,-,N/A,,Mostly Cloudy,0,2013-01-04 23:53:00
4:53 PM,46.0,41.0,83,30.26,10.0,NE,5.8,-,N/A,,Mostly Cloudy,40,2013-01-05 00:53:00
5:53 PM,46.0,41.0,83,30.24,10.0,NE,4.6,-,N/A,,Mostly Cloudy,50,2013-01-05 01:53:00
6:53 PM,44.1,39.9,85,30.23,10.0,Calm,Calm,-,N/A,,Mostly Cloudy,0,2013-01-05 02:53:00
7:53 PM,44.1,39.9,85,30.22,10.0,North,6.9,-,N/A,,Overcast,10,2013-01-05 03:53:00
8:53 PM,43.0,39.0,86,30.21,10.0,ENE,5.8,-,N/A,,Overcast,60,2013-01-05 04:53:00
9:53 PM,43.0,36.0,76,30.20,10.0,ESE,5.8,-,N/A,,Overcast,110,2013-01-05 05:53:00
10:53 PM,44.1,35.1,71,30.20,10.0,ESE,5.8,-,N/A,,Overcast,110,2013-01-05 06:53:00
11:53 PM,43.0,33.1,68,30.19,10.0,East,3.5,-,N/A,,Overcast,100,2013-01-05 07:53:00